Riverton Regional Airport
KRIW : now visible

Airfield :











YOU CAN JOIN US ON...

 
LOGIN :

Register | Disclaimer

   EN    FR    IT 

 









Legend :    VFR   Marginal VFR   IFR   Intensive IFR   Very Intensive IFR
Visi :
Ceiling :
>= 8 km
>= 3000ft
5 to 8 km
1000 to 3000 ft
1500m to 5 km
500 to 1000 ft
800 to 1500m
200 to 500 ft
< 800m
< 200 ft
Symbols :   Thunderstorms  Fog  Heavy snow  Heavy precipitations  Wind > 20 kt






- Airport Elevation : 5525 ft


KRIW - Riverton Regional

CURRENT METAR :
  • 241453Z AUTO VRB03KT 10SM CLR 13/01 A3031 RMK AO2 SLP218 T01330006 53007

EXPIRED METARs :
  • 241353Z AUTO 36003KT 10SM CLR 10/01 A3030 RMK AO2 SLP219 T01000006
  • 241253Z AUTO 34005KT 10SM CLR 07/01 A3029 RMK AO2 SLP220 T00670006

TAF KRIW
Valid from the 24 at 12:00 until the 25 at 12:00 UTC


241120Z 2412/2512 VRB05KT P6SM SKC
FM241800 11007KT P6SM SKC
FM250400 31008KT P6SM SKC
KZLC FIR / North America



MET'MAP, your aeronautical weather chart ! - Copyright ORBIFLY December 2007 - Disclaimer

ORBIFLY MET'MAP TEAM :

Programming & Development : Alexandra Zaïnal
Concept & original design : Baudouin d'Aumeries
Assistance for programming : Marc-Olivier Méhu
Technical & hardware support : Manuel Goepfert

Contact : metmap@orbifly.com




SOURCES & CREDITS :

   NOAA       Earth
Advisory